Terminal Aerodrome Forecast
Issued by NWS Dodge City, KS

Home | Current Version | Previous Version | Graphics & Text | Print | Product List | Glossary Off
Versions: 1 2 3 4 5 6 7 8 9 10 11 12 13 14 15 16

000
FTUS43 KDDC 282320
TAFDDC
TAF
KDDC 282320Z 2900/2924 27008KT P6SM SKC
     FM291900 20012G18KT P6SM SKC=

USA.gov is the U.S. government's official web portal to all federal, state and local government web resources and services.